Meteo orario Kozin

Oggi, 8 Marzo, Lunedi

Tempo Temperatura Precipitazioni Vento Pressione Umidità
00:00 -1°C° 0.1 mm 2 m/s 758 mm Hg 92%
01:00 -2°C° 0 mm 2 m/s 758 mm Hg 91%
02:00 -2°C° 0 mm 2 m/s 758 mm Hg 87%
03:00 -3°C° 0 mm 2 m/s 758 mm Hg 84%
04:00 -3°C° 0 mm 2 m/s 758 mm Hg 80%
05:00 -3°C° 0 mm 2 m/s 759 mm Hg 78%
06:00 -3°C° 0 mm 2 m/s 759 mm Hg 76%
07:00 -3°C° 0 mm 2 m/s 759 mm Hg 74%
08:00 -2°C° 0 mm 2 m/s 760 mm Hg 67%
09:00 0°C° 0 mm 3 m/s 761 mm Hg 61%
10:00 +2°C° 0 mm 3 m/s 761 mm Hg 54%
11:00 +2°C° 0 mm 3 m/s 761 mm Hg 49%
12:00 +3°C° 0 mm 3 m/s 761 mm Hg 45%
13:00 +3°C° 0 mm 3 m/s 761 mm Hg 41%
14:00 +3°C° 0 mm 3 m/s 761 mm Hg 42%
15:00 +3°C° 0 mm 3 m/s 761 mm Hg 43%
16:00 +3°C° 0 mm 3 m/s 761 mm Hg 43%
17:00 +1°C° 0 mm 3 m/s 761 mm Hg 51%
18:00 +1°C° 0 mm 2 m/s 761 mm Hg 58%
19:00 -2°C° 0 mm 2 m/s 761 mm Hg 65%
20:00 -2°C° 0 mm 2 m/s 762 mm Hg 68%
21:00 -3°C° 0 mm 2 m/s 762 mm Hg 70%
22:00 -1°C° 0 mm 1 m/s 762 mm Hg 73%
23:00 -1°C° 0 mm 1 m/s 762 mm Hg 73%

Domani, 9 Marzo, Martedi

Tempo Temperatura Precipitazioni Vento Pressione Umidità
00:00 -1°C° 0 mm 1 m/s 762 mm Hg 73%
01:00 -1°C° 0 mm 1 m/s 762 mm Hg 73%
02:00 -1°C° 0 mm 1 m/s 761 mm Hg 73%
03:00 -1°C° 0 mm 1 m/s 761 mm Hg 72%
04:00 -1°C° 0 mm 1 m/s 760 mm Hg 72%
05:00 -1°C° 0 mm 1 m/s 761 mm Hg 71%
06:00 -1°C° 0 mm 1 m/s 761 mm Hg 70%
07:00 -1°C° 0 mm 1 m/s 761 mm Hg 69%
08:00 0°C° 0 mm 1 m/s 760 mm Hg 63%
09:00 +1°C° 0 mm 1 m/s 760 mm Hg 57%
10:00 +3°C° 0 mm 1 m/s 760 mm Hg 50%
11:00 +4°C° 0 mm 1 m/s 760 mm Hg 46%
12:00 +4°C° 0 mm 1 m/s 760 mm Hg 42%
13:00 +5°C° 0 mm 1 m/s 760 mm Hg 38%
14:00 +5°C° 0 mm 1 m/s 760 mm Hg 38%
15:00 +5°C° 0 mm 1 m/s 759 mm Hg 38%
16:00 +5°C° 0 mm 1 m/s 759 mm Hg 37%
17:00 +4°C° 0 mm 1 m/s 759 mm Hg 42%
18:00 +2°C° 0 mm 1 m/s 759 mm Hg 47%
19:00 +1°C° 0 mm 1 m/s 759 mm Hg 52%
20:00 0°C° 0 mm 1 m/s 760 mm Hg 53%
21:00 0°C° 0 mm 1 m/s 760 mm Hg 54%
22:00 0°C° 0 mm 1 m/s 760 mm Hg 55%
23:00 0°C° 0 mm 1 m/s 760 mm Hg 56%

Dopodomani, 10 Marzo, Mercoledi

Tempo Temperatura Precipitazioni Vento Pressione Umidità
00:00 -1°C° 0 mm 1 m/s 760 mm Hg 56%
01:00 -1°C° 0 mm 1 m/s 759 mm Hg 56%
02:00 -1°C° 0 mm 1 m/s 759 mm Hg 56%
03:00 -1°C° 0 mm 1 m/s 759 mm Hg 56%
04:00 -1°C° 0 mm 1 m/s 759 mm Hg 56%
05:00 -1°C° 0 mm 1 m/s 760 mm Hg 55%
06:00 -1°C° 0 mm 1 m/s 760 mm Hg 55%
07:00 -1°C° 0 mm 1 m/s 760 mm Hg 55%
08:00 -1°C° 0 mm 2 m/s 760 mm Hg 50%
09:00 +2°C° 0 mm 2 m/s 760 mm Hg 44%
10:00 +3°C° 0 mm 2 m/s 760 mm Hg 39%
11:00 +3°C° 0 mm 3 m/s 760 mm Hg 37%
12:00 +4°C° 0 mm 3 m/s 760 mm Hg 35%
13:00 +5°C° 0 mm 3 m/s 760 mm Hg 33%
14:00 +5°C° 0 mm 3 m/s 760 mm Hg 35%
15:00 +5°C° 0 mm 3 m/s 760 mm Hg 37%
16:00 +4°C° 0 mm 3 m/s 759 mm Hg 39%
17:00 +3°C° 0 mm 3 m/s 759 mm Hg 44%
18:00 +1°C° 0 mm 3 m/s 759 mm Hg 49%
19:00 -1°C° 0 mm 3 m/s 759 mm Hg 54%
20:00 0°C° 0 mm 3 m/s 759 mm Hg 55%
21:00 -1°C° 0 mm 4 m/s 759 mm Hg 56%
22:00 -1°C° 0 mm 4 m/s 758 mm Hg 57%
23:00 -1°C° 0 mm 5 m/s 758 mm Hg 64%

11 Marzo, Giovedi

Tempo Temperatura Precipitazioni Vento Pressione Umidità
00:00 -1°C° 0 mm 5 m/s 757 mm Hg 72%
01:00 -1°C° 0 mm 5 m/s 757 mm Hg 79%
02:00 -1°C° 0 mm 5 m/s 756 mm Hg 79%
03:00 0°C° 0 mm 5 m/s 755 mm Hg 79%
04:00 -1°C° 0 mm 6 m/s 753 mm Hg 80%
05:00 -1°C° 0.1 mm 6 m/s 753 mm Hg 80%
06:00 +1°C° 0.1 mm 6 m/s 752 mm Hg 80%
07:00 +1°C° 0.1 mm 6 m/s 751 mm Hg 80%
08:00 0°C° 0.6 mm 7 m/s 750 mm Hg 84%
09:00 +2°C° 0.6 mm 7 m/s 750 mm Hg 88%
10:00 +1°C° 0.6 mm 8 m/s 749 mm Hg 91%
11:00 +1°C° 0.7 mm 8 m/s 748 mm Hg 90%
12:00 +3°C° 0.7 mm 7 m/s 747 mm Hg 89%
13:00 +3°C° 0.7 mm 7 m/s 747 mm Hg 88%
14:00 +4°C° 0.6 mm 6 m/s 746 mm Hg 88%
15:00 +5°C° 0.6 mm 6 m/s 745 mm Hg 87%
16:00 +7°C° 0.6 mm 6 m/s 744 mm Hg 86%
17:00 +7°C° 0.6 mm 6 m/s 744 mm Hg 85%
18:00 +7°C° 0.6 mm 6 m/s 744 mm Hg 83%
19:00 +7°C° 0.6 mm 6 m/s 744 mm Hg 82%
20:00 +5°C° 0 mm 6 m/s 744 mm Hg 82%
21:00 +6°C° 0 mm 5 m/s 745 mm Hg 81%
22:00 +5°C° 0 mm 5 m/s 745 mm Hg 81%
23:00 +5°C° 0.1 mm 5 m/s 746 mm Hg 82%

12 Marzo, Venerdi

Tempo Temperatura Precipitazioni Vento Pressione Umidità
00:00 +5°C° 0.1 mm 5 m/s 746 mm Hg 83%
01:00 +4°C° 0.1 mm 6 m/s 746 mm Hg 84%
02:00 +3°C° 0 mm 6 m/s 746 mm Hg 84%
03:00 +3°C° 0 mm 6 m/s 746 mm Hg 84%
04:00 +2°C° 0 mm 6 m/s 747 mm Hg 84%
05:00 +2°C° 0 mm 6 m/s 747 mm Hg 84%
06:00 +2°C° 0 mm 7 m/s 748 mm Hg 83%
07:00 +2°C° 0 mm 7 m/s 748 mm Hg 83%
08:00 +3°C° 0 mm 7 m/s 749 mm Hg 78%
09:00 +4°C° 0 mm 8 m/s 749 mm Hg 73%
10:00 +5°C° 0 mm 8 m/s 750 mm Hg 68%
11:00 +5°C° 0 mm 8 m/s 750 mm Hg 67%
12:00 +5°C° 0 mm 8 m/s 750 mm Hg 65%
13:00 +5°C° 0 mm 8 m/s 750 mm Hg 63%
14:00 +5°C° 0.1 mm 7 m/s 750 mm Hg 63%
15:00 +7°C° 0.1 mm 6 m/s 750 mm Hg 62%
16:00 +7°C° 0.1 mm 6 m/s 750 mm Hg 61%
17:00 +6°C° 0 mm 5 m/s 750 mm Hg 66%
18:00 +5°C° 0 mm 5 m/s 750 mm Hg 71%
19:00 +4°C° 0 mm 4 m/s 750 mm Hg 76%
20:00 +4°C° 0 mm 4 m/s 750 mm Hg 78%
21:00 +3°C° 0 mm 4 m/s 750 mm Hg 80%
22:00 +3°C° 0 mm 4 m/s 750 mm Hg 82%
23:00 +2°C° 0 mm 5 m/s 749 mm Hg 81%

13 Marzo, Sabato

Tempo Temperatura Precipitazioni Vento Pressione Umidità
00:00 +2°C° 0 mm 5 m/s 749 mm Hg 80%
01:00 +2°C° 0 mm 5 m/s 748 mm Hg 79%
02:00 +2°C° 0 mm 5 m/s 748 mm Hg 79%
03:00 +2°C° 0 mm 6 m/s 747 mm Hg 79%
04:00 +2°C° 0 mm 6 m/s 747 mm Hg 79%
05:00 +3°C° 0 mm 5 m/s 747 mm Hg 81%
06:00 +3°C° 0 mm 5 m/s 747 mm Hg 83%
07:00 +3°C° 0 mm 5 m/s 747 mm Hg 84%
08:00 +4°C° 0 mm 6 m/s 748 mm Hg 79%
09:00 +4°C° 0 mm 7 m/s 748 mm Hg 74%
10:00 +5°C° 0 mm 7 m/s 748 mm Hg 69%
11:00 +6°C° 0.1 mm 7 m/s 748 mm Hg 64%
12:00 +6°C° 0.1 mm 7 m/s 748 mm Hg 60%
13:00 +8°C° 0.1 mm 7 m/s 748 mm Hg 55%
14:00 +6°C° 0.2 mm 7 m/s 748 mm Hg 57%
15:00 +6°C° 0.2 mm 7 m/s 748 mm Hg 59%
16:00 +6°C° 0.2 mm 7 m/s 748 mm Hg 61%
17:00 +6°C° 0.1 mm 5 m/s 748 mm Hg 66%
18:00 +4°C° 0.1 mm 4 m/s 749 mm Hg 71%
19:00 +3°C° 0.1 mm 3 m/s 749 mm Hg 76%
20:00 +3°C° 0 mm 3 m/s 749 mm Hg 76%
21:00 +3°C° 0 mm 4 m/s 750 mm Hg 77%
22:00 +3°C° 0 mm 4 m/s 750 mm Hg 78%
23:00 +3°C° 0 mm 4 m/s 750 mm Hg 81%
Mostrare altro